This demonstration page uses our WeatherBlox Daily Observations layout. Learn more.

39.29038, -76.61219

Hourly Observations for July 8, 2020

Temp ( °F °C ) Dew Point ( °F °C ) Humidity (%) Winds ( mph kmh ) Pressure ( in mb ) Visibility ( mi km ) Precip ( " mm )
12:54 am 00:54 Mostly Cloudy 78 25.6 73 22.8 85 85 SSE 3 6 30 1016 10 16.0934 0 0
1:54 am 01:54 Mostly Cloudy 78 25.6 73 22.8 85 85 SSE 3 6 29.99 1016 10 16.0934 0 0
2:54 am 02:54 Mostly Cloudy 77 25 73 22.8 88 88 Calm 29.98 1015 10 16.0934 0 0
3:54 am 03:54 Mostly Cloudy 76 24.4 73 22.8 91 91 Calm 29.98 1015 10 16.0934 0 0
4:54 am 04:54 Mostly Clear 76 24.4 72 22.2 88 88 Calm 29.98 1015 9 14.48406 0 0
5:54 am 05:54 Mostly Sunny 75 23.9 72 22.2 90 90 SE 5 7 29.98 1015 9 14.48406 0 0
6:54 am 06:54 Mostly Sunny 76 24.4 72 22.2 88 88 SSW 3 6 30 1016 10 16.0934 0 0
7:54 am 07:54 Mostly Sunny 79 26.1 73 22.8 82 82 Calm 30 1016 10 16.0934 0 0
8:54 am 08:54 Mostly Sunny 82 27.8 73 22.8 74 74 Calm 30.01 1016 10 16.0934 0 0
9:54 am 09:54 Partly Cloudy 85 29.4 72 22.2 65 65 Calm 30.01 1016 10 16.0934 0 0
10:54 am 10:54 Partly Cloudy 86 30 72 22.2 63 63 VRB 6 9 30 1016 10 16.0934 0 0
11:54 am 11:54 Partly Cloudy 88 31.1 71 21.7 57 57 VRB 5 7 29.99 1016 10 16.0934 0 0
12:54 pm 12:54 Partly Cloudy 88 31.1 70 21.1 55 55 SE 6 9 29.98 1015 10 16.0934 0 0
1:54 pm 13:54 Partly Cloudy 89 31.7 68 20 50 50 SSE 8 13 29.96 1015 10 16.0934 0 0
2:54 pm 14:54 Partly Cloudy 90 32.2 67 19.4 47 47 S 7 11 29.95 1014 10 16.0934 0 0
3:54 pm 15:54 Partly Cloudy 90 32.2 67 19.4 47 47 S 8 13 29.93 1014 10 16.0934 0 0
4:54 pm 16:54 Partly Cloudy 90 32.2 67 19.4 47 47 S 8 13 29.92 1013 10 16.0934 0 0
5:54 pm 17:54 Partly Cloudy 88 31.1 65 18.3 46 46 SSE 8 13 29.92 1013 10 16.0934 0 0
6:54 pm 18:54 Partly Cloudy 87 30.6 64 17.8 46 46 S 6 9 29.92 1013 10 16.0934 0 0
7:54 pm 19:54 Partly Cloudy 85 29.4 68 20 57 57 SSE 6 9 29.92 1013 10 16.0934 0 0
8:54 pm 20:54 Mostly Clear 83 28.3 69 20.6 63 63 Calm 29.94 1014 10 16.0934 0 0
9:54 pm 21:54 Partly Cloudy 81 27.2 68 20 65 65 S 3 6 29.95 1014 10 16.0934 0 0
10:54 pm 22:54 Partly Cloudy 79 26.1 69 20.6 72 72 S 5 7 29.94 1014 10 16.0934 0 0
11:54 pm 23:54 Mostly Clear 78 25.6 69 20.6 74 74 S 3 6 29.93 1014 10 16.0934 0 0

Powered by AerisWeather